Tracking 22283 objects as of 28-Jan-2021
HD Live streaming from Space Station
objects crossing your sky now

STARLINK-1549

Track STARLINK-1549 now!
10-day predictions
STARLINK-1549 is classified as:


NORAD ID: 46074
Int'l Code: 2020-055AZ
Perigee: 555.0 km
Apogee: 558.5 km
Inclination: 53.0 °
Period: 95.6 minutes
Semi major axis: 6927 km
RCS: Unknown
Launch date: August 7, 2020
Source: United States (US)
Launch site: AIR FORCE EASTERN TEST RANGE (AFETR)
aabbcc
Your satellite tracking list
Your tracking list is empty




NASA's NSSDC Master Catalog

Two Line Element Set (TLE):
1 46074U 20055AZ  21028.45562878  .00003216  00000-0  23968-3 0  9994
2 46074  53.0069 194.4451 0002535 103.5868 256.5402 15.05605038 27499
Source of the keplerian elements: AFSPC